TimeEDT,TemperatureF,Dew PointF,Humidity,Sea Level PressureIn,VisibilityMPH,Wind Direction,Wind SpeedMPH,Gust SpeedMPH,PrecipitationIn,Events,Conditions,WindDirDegrees,DateUTC
12:53 AM,61.0,59.0,93,30.10,7.0,Calm,Calm,-,N/A,,Scattered Clouds,0,2013-10-13 04:53:00
1:53 AM,60.1,57.9,93,30.10,7.0,SSW,3.5,-,N/A,,Scattered Clouds,200,2013-10-13 05:53:00
2:53 AM,60.1,57.9,93,30.13,9.0,West,4.6,-,N/A,,Scattered Clouds,270,2013-10-13 06:53:00
3:53 AM,59.0,57.9,96,30.14,3.0,West,4.6,-,N/A,,Scattered Clouds,270,2013-10-13 07:53:00
4:53 AM,59.0,57.9,96,30.16,9.0,West,3.5,-,N/A,,Mostly Cloudy,270,2013-10-13 08:53:00
5:53 AM,61.0,57.9,90,30.17,10.0,WNW,5.8,-,N/A,,Mostly Cloudy,290,2013-10-13 09:53:00
6:53 AM,60.1,55.0,83,30.21,10.0,WNW,8.1,-,N/A,,Mostly Cloudy,290,2013-10-13 10:53:00
7:53 AM,57.9,48.0,70,30.23,10.0,NNW,10.4,-,N/A,,Scattered Clouds,330,2013-10-13 11:53:00
8:53 AM,57.9,46.9,67,30.25,10.0,NW,5.8,-,N/A,,Scattered Clouds,320,2013-10-13 12:53:00
9:53 AM,61.0,44.1,54,30.28,10.0,NNW,8.1,-,N/A,,Scattered Clouds,330,2013-10-13 13:53:00
10:53 AM,62.1,39.9,44,30.29,10.0,NNW,11.5,-,N/A,,Partly Cloudy,340,2013-10-13 14:53:00
11:53 AM,64.0,39.9,41,30.30,10.0,NNW,9.2,-,N/A,,Scattered Clouds,330,2013-10-13 15:53:00
12:53 PM,64.9,41.0,42,30.30,10.0,WNW,4.6,-,N/A,,Scattered Clouds,300,2013-10-13 16:53:00
1:53 PM,66.9,39.9,37,30.28,10.0,NW,4.6,-,N/A,,Partly Cloudy,320,2013-10-13 17:53:00
2:53 PM,68.0,39.0,35,30.27,10.0,WNW,4.6,-,N/A,,Partly Cloudy,290,2013-10-13 18:53:00
3:53 PM,68.0,39.0,35,30.27,10.0,WNW,8.1,-,N/A,,Partly Cloudy,290,2013-10-13 19:53:00
4:53 PM,68.0,37.9,33,30.28,10.0,WNW,9.2,-,N/A,,Partly Cloudy,300,2013-10-13 20:53:00
5:53 PM,64.9,37.0,36,30.28,10.0,WNW,8.1,-,N/A,,Partly Cloudy,300,2013-10-13 21:53:00
6:53 PM,61.0,37.0,41,30.30,10.0,NW,6.9,-,N/A,,Partly Cloudy,310,2013-10-13 22:53:00
7:53 PM,57.9,37.0,46,30.31,10.0,NW,5.8,-,N/A,,Clear,320,2013-10-13 23:53:00
8:53 PM,57.0,37.9,49,30.32,10.0,NW,4.6,-,N/A,,Clear,320,2013-10-14 00:53:00
9:53 PM,55.9,41.0,57,30.34,10.0,NNW,8.1,-,N/A,,Clear,340,2013-10-14 01:53:00
10:53 PM,54.0,42.1,64,30.35,10.0,NNW,5.8,-,N/A,,Clear,330,2013-10-14 02:53:00
11:53 PM,51.1,42.1,71,30.35,10.0,North,3.5,-,N/A,,Clear,360,2013-10-14 03:53:00